| time (UTC) | temp C | wind direction | speed KPH | gust KPH | rain 1hr cm | rain 24hr cm | rain mn cm | humidity % | barometer mb |
| 20260905170101 | 32 | 175 | 4.8 | 17.7 | 0.00 | 0.00 | 0.00 | 67 | 1016.0 |
| 20260905170053 | 32 | 230 | 4.8 | 17.7 | 0.00 | 0.00 | 0.00 | 67 | 1014.5 |
| 20260905164557 | 31 | 177 | 6.4 | 17.7 | 0.00 | 0.00 | 0.00 | 68 | 1014.5 |
| 20260905164554 | 31 | 172 | 4.8 | 14.5 | 0.00 | 0.00 | 0.00 | 69 | 1016.1 |
| 20260905163054 | 31 | 143 | 6.4 | 17.7 | 0.00 | 0.00 | 0.00 | 72 | 1014.7 |
| 20260905163050 | 31 | 142 | 6.4 | 17.7 | 0.00 | 0.00 | 0.00 | 72 | 1016.2 |
| 20260905161551 | 30 | 161 | 6.4 | 16.1 | 0.00 | 0.00 | 0.00 | 74 | 1014.7 |
| 20260905161547 | 30 | 180 | 4.8 | 16.1 | 0.00 | 0.00 | 0.00 | 75 | 1016.4 |
| 20260905160133 | 30 | 146 | 3.2 | 16.1 | 0.00 | 0.00 | 0.00 | 76 | 1014.6 |
| 20260905160114 | 30 | 167 | 1.6 | 11.3 | 0.00 | 0.00 | 0.00 | 76 | 1016.4 |
| 20260905154554 | 29 | 102 | 4.8 | 19.3 | 0.00 | 0.00 | 0.00 | 80 | 1014.6 |
| 20260905154548 | 29 | 121 | 3.2 | 16.1 | 0.00 | 0.00 | 0.00 | 80 | 1016.3 |
| 20260905153051 | 28 | 139 | 6.4 | 16.1 | 0.00 | 0.00 | 0.00 | 81 | 1014.6 |
| 20260905153041 | 28 | 139 | 6.4 | 11.3 | 0.00 | 0.00 | 0.00 | 81 | 1016.2 |
| 20260905151557 | 28 | 155 | 3.2 | 11.3 | 0.00 | 0.00 | 0.00 | 81 | 1014.6 |
| 20260905151541 | 28 | 136 | 4.8 | 11.3 | 0.00 | 0.00 | 0.00 | 81 | 1016.2 |
| 20260905150058 | 28 | 221 | 3.2 | 11.3 | 0.00 | 0.00 | 0.00 | 82 | 1014.6 |
| 20260905150038 | 28 | 137 | 1.6 | 11.3 | 0.00 | 0.00 | 0.00 | 83 | 1016.2 |
| 20260905144557 | 27 | 0 | 6.4 | 12.9 | 0.00 | 0.00 | 0.00 | 85 | 1014.6 |
| 20260905144536 | 27 | 138 | 4.8 | 12.9 | 0.00 | 0.00 | 0.00 | 85 | 1016.2 |
| 20260905143052 | 27 | 162 | 1.6 | 9.7 | 0.00 | 0.00 | 0.00 | 84 | 1014.5 |
| 20260905143035 | 27 | 162 | 1.6 | 8.0 | 0.00 | 0.00 | 0.00 | 85 | 1016.2 |
| 20260905141553 | 27 | 143 | 0.0 | 9.7 | 0.00 | 0.00 | 0.00 | 85 | 1014.4 |
| 20260905141540 | 27 | 143 | 0.0 | 9.7 | 0.00 | 0.00 | 0.00 | 85 | 1016.2 |
| 20260905140058 | 27 | 157 | 0.0 | 9.7 | 0.00 | 0.00 | 0.00 | 84 | 1014.2 |
| 20260905140036 | 27 | 157 | 1.6 | 6.4 | 0.00 | 0.00 | 0.00 | 84 | 1016.2 |
| 20260905134556 | 27 | 158 | 1.6 | 8.0 | 0.00 | 0.00 | 0.00 | 86 | 1014.2 |
| 20260905134535 | 27 | 158 | 3.2 | 8.0 | 0.00 | 0.00 | 0.00 | 86 | 1015.8 |
| 20260905133052 | 26 | 190 | 3.2 | 11.3 | 0.00 | 0.00 | 0.00 | 88 | 1014.0 |
| 20260905133031 | 26 | 190 | 3.2 | 9.7 | 0.00 | 0.00 | 0.00 | 89 | 1015.7 |
| 20260905131605 | 25 | 0 | 0.0 | 3.2 | 0.00 | 0.00 | 0.00 | 91 | 1013.8 |
| 20260905131529 | 25 | 136 | 0.0 | 3.2 | 0.00 | 0.00 | 0.00 | 92 | 1015.7 |
| 20260905130059 | 25 | 0 | 0.0 | 1.6 | 0.00 | 0.00 | 0.00 | 91 | 1013.8 |
| 20260905130028 | 25 | 136 | 0.0 | 1.6 | 0.00 | 0.00 | 0.00 | 92 | 1015.4 |
| 20260905124554 | 25 | 0 | 0.0 | 4.8 | 0.00 | 0.00 | 0.00 | 91 | 1013.6 |
| 20260905124537 | 25 | 136 | 0.0 | 4.8 | 0.00 | 0.00 | 0.00 | 91 | 1015.2 |
| 20260905123052 | 25 | 0 | 0.0 | 0.0 | 0.00 | 0.00 | 0.00 | 90 | 1013.4 |
| 20260905123026 | 25 | 129 | 0.0 | 0.0 | 0.00 | 0.00 | 0.00 | 91 | 1015.1 |
| 20260905121555 | 25 | 0 | 0.0 | 3.2 | 0.00 | 0.00 | 0.00 | 90 | 1013.3 |
| 20260905121526 | 25 | 105 | 0.0 | 3.2 | 0.00 | 0.00 | 0.00 | 90 | 1014.9 |
| 20260905120113 | 25 | 86 | 1.6 | 6.4 | 0.00 | 0.00 | 0.00 | 90 | 1013.4 |
| 20260905120025 | 25 | 86 | 1.6 | 6.4 | 0.00 | 0.00 | 0.00 | 90 | 1014.9 |
| 20260905114558 | 25 | 121 | 1.6 | 6.4 | 0.00 | 0.00 | 0.00 | 90 | 1013.3 |
| 20260905114526 | 25 | 121 | 1.6 | 6.4 | 0.00 | 0.00 | 0.00 | 91 | 1014.9 |
| 20260905113052 | 25 | 132 | 1.6 | 4.8 | 0.00 | 0.00 | 0.00 | 90 | 1013.1 |
| 20260905113024 | 25 | 132 | 1.6 | 4.8 | 0.00 | 0.00 | 0.00 | 91 | 1014.7 |
| 20260905111608 | 25 | 0 | 0.0 | 4.8 | 0.00 | 0.00 | 0.00 | 90 | 1013.1 |
| 20260905111523 | 25 | 113 | 1.6 | 4.8 | 0.00 | 0.00 | 0.00 | 91 | 1014.7 |
| 20260905110056 | 25 | 0 | 0.0 | 3.2 | 0.00 | 0.00 | 0.00 | 90 | 1012.9 |
| 20260905110022 | 25 | 155 | 0.0 | 3.2 | 0.00 | 0.00 | 0.00 | 91 | 1014.7 |
| 20260905104557 | 25 | 0 | 0.0 | 4.8 | 0.00 | 0.00 | 0.00 | 90 | 1013.0 |
| 20260905104520 | 25 | 155 | 0.0 | 3.2 | 0.00 | 0.00 | 0.00 | 90 | 1014.6 |
| 20260905103054 | 26 | 0 | 0.0 | 3.2 | 0.00 | 0.00 | 0.00 | 89 | 1013.0 |
| 20260905103025 | 26 | 180 | 0.0 | 3.2 | 0.00 | 0.00 | 0.00 | 90 | 1014.7 |
| 20260905101555 | 26 | 134 | 0.0 | 6.4 | 0.00 | 0.00 | 0.00 | 89 | 1012.8 |
| 20260905101519 | 26 | 134 | 1.6 | 4.8 | 0.00 | 0.00 | 0.00 | 89 | 1014.5 |
| 20260905100101 | 26 | 0 | 1.6 | 8.0 | 0.00 | 0.00 | 0.00 | 89 | 1012.9 |
| 20260905100018 | 26 | 153 | 0.0 | 6.4 | 0.00 | 0.00 | 0.00 | 89 | 1014.6 |
| 20260905094554 | 26 | 146 | 1.6 | 8.0 | 0.00 | 0.00 | 0.00 | 88 | 1013.0 |
| 20260905094518 | 26 | 147 | 1.6 | 8.0 | 0.00 | 0.00 | 0.00 | 89 | 1014.7 |
| 20260905093056 | 26 | 164 | 1.6 | 9.7 | 0.00 | 0.00 | 0.00 | 88 | 1012.8 |
| 20260905093017 | 26 | 164 | 1.6 | 8.0 | 0.00 | 0.00 | 0.00 | 89 | 1014.6 |
| 20260905091618 | 26 | 140 | 3.2 | 11.3 | 0.00 | 0.00 | 0.00 | 89 | 1012.7 |
| 20260905091547 | 26 | 144 | 4.8 | 11.3 | 0.00 | 0.00 | 0.00 | 89 | 1014.5 |
| 20260905090106 | 26 | 165 | 1.6 | 8.0 | 0.00 | 0.00 | 0.00 | 88 | 1012.7 |
| 20260905090015 | 26 | 166 | 1.6 | 6.4 | 0.00 | 0.00 | 0.00 | 89 | 1014.4 |
| 20260905084606 | 26 | 141 | 1.6 | 11.3 | 0.00 | 0.00 | 0.00 | 88 | 1012.7 |
| 20260905084513 | 26 | 141 | 1.6 | 8.0 | 0.00 | 0.00 | 0.00 | 89 | 1014.5 |
| 20260905083052 | 26 | 109 | 3.2 | 8.0 | 0.00 | 0.00 | 0.00 | 88 | 1013.0 |
| 20260905083014 | 26 | 128 | 3.2 | 8.0 | 0.00 | 0.00 | 0.00 | 88 | 1014.7 |
| 20260905081552 | 26 | 120 | 1.6 | 4.8 | 0.00 | 0.00 | 0.00 | 87 | 1013.0 |
| 20260905081511 | 26 | 121 | 1.6 | 4.8 | 0.00 | 0.00 | 0.00 | 88 | 1014.7 |
| 20260905080055 | 26 | 133 | 1.6 | 11.3 | 0.00 | 0.00 | 0.00 | 87 | 1013.0 |
| 20260905080009 | 26 | 148 | 3.2 | 9.7 | 0.00 | 0.00 | 0.00 | 87 | 1014.7 |
| 20260905074556 | 26 | 146 | 3.2 | 11.3 | 0.00 | 0.00 | 0.00 | 86 | 1013.0 |
| 20260905074512 | 26 | 131 | 3.2 | 11.3 | 0.00 | 0.00 | 0.00 | 87 | 1014.7 |
| 20260905073053 | 26 | 118 | 3.2 | 11.3 | 0.00 | 0.00 | 0.00 | 86 | 1013.4 |
| 20260905073006 | 26 | 115 | 3.2 | 9.7 | 0.00 | 0.00 | 0.00 | 86 | 1014.9 |
| 20260905071555 | 26 | 173 | 3.2 | 12.9 | 0.00 | 0.00 | 0.00 | 85 | 1013.5 |
| 20260905071505 | 26 | 111 | 4.8 | 12.9 | 0.00 | 0.00 | 0.00 | 86 | 1015.1 |
| 20260905070101 | 27 | 158 | 3.2 | 12.9 | 0.00 | 0.00 | 0.00 | 85 | 1013.5 |
| 20260905070004 | 27 | 131 | 3.2 | 12.9 | 0.00 | 0.00 | 0.00 | 85 | 1015.1 |
| 20260905064556 | 27 | 167 | 4.8 | 14.5 | 0.00 | 0.00 | 0.00 | 84 | 1013.6 |
| 20260905064503 | 27 | 163 | 4.8 | 14.5 | 0.00 | 0.00 | 0.00 | 85 | 1015.1 |
| 20260905063100 | 27 | 155 | 4.8 | 16.1 | 0.00 | 0.00 | 0.00 | 83 | 1013.5 |
| 20260905063001 | 27 | 97 | 4.8 | 14.5 | 0.00 | 0.00 | 0.00 | 84 | 1015.1 |
| 20260905061622 | 27 | 158 | 6.4 | 17.7 | 0.00 | 0.00 | 0.00 | 83 | 1015.1 |
| 20260905061620 | 27 | 111 | 4.8 | 17.7 | 0.00 | 0.00 | 0.00 | 83 | 1013.5 |
| 20260905060116 | 27 | 121 | 8.0 | 19.3 | 0.00 | 0.00 | 0.00 | 82 | 1015.2 |
| 20260905054557 | 27 | 140 | 4.8 | 16.1 | 0.00 | 0.00 | 0.00 | 81 | 1015.1 |
| 20260905054551 | 27 | 148 | 8.0 | 16.1 | 0.00 | 0.00 | 0.00 | 80 | 1013.6 |
| 20260905053059 | 27 | 133 | 4.8 | 16.1 | 0.00 | 0.00 | 0.00 | 79 | 1013.6 |
| 20260905053056 | 27 | 132 | 4.8 | 16.1 | 0.00 | 0.00 | 0.00 | 79 | 1015.2 |
| 20260905051556 | 28 | 119 | 6.4 | 14.5 | 0.00 | 0.00 | 0.00 | 76 | 1013.6 |
| 20260905051552 | 28 | 120 | 6.4 | 14.5 | 0.00 | 0.00 | 0.00 | 77 | 1015.3 |
| 20260905050056 | 28 | 132 | 8.0 | 19.3 | 0.00 | 0.00 | 0.00 | 74 | 1013.5 |
| 20260905050049 | 28 | 136 | 4.8 | 17.7 | 0.00 | 0.00 | 0.00 | 75 | 1015.1 |
| 20260905044553 | 28 | 140 | 4.8 | 14.5 | 0.00 | 0.00 | 0.00 | 72 | 1013.5 |
| 20260905044548 | 28 | 148 | 4.8 | 11.3 | 0.00 | 0.00 | 0.00 | 72 | 1015.1 |
| 20260905043047 | 28 | 174 | 6.4 | 16.1 | 0.00 | 0.00 | 0.00 | 70 | 1015.2 |
| 20260905041601 | 28 | 123 | 9.7 | 17.7 | 0.00 | 0.00 | 0.00 | 68 | 1013.5 |
| 20260905041556 | 28 | 182 | 8.0 | 17.7 | 0.00 | 0.00 | 0.00 | 69 | 1015.2 |
| 20260905040053 | 29 | 148 | 9.7 | 20.9 | 0.00 | 0.00 | 0.00 | 67 | 1013.4 |
| 20260905040046 | 29 | 90 | 9.7 | 17.7 | 0.00 | 0.00 | 0.00 | 68 | 1015.1 |
| 20260905034610 | 29 | 109 | 8.0 | 20.9 | 0.00 | 0.00 | 0.00 | 67 | 1013.4 |
| 20260905034554 | 29 | 146 | 8.0 | 20.9 | 0.00 | 0.00 | 0.00 | 68 | 1015.1 |
| 20260905033105 | 29 | 147 | 8.0 | 20.9 | 0.00 | 0.00 | 0.00 | 68 | 1013.2 |
| 20260905033045 | 29 | 122 | 9.7 | 20.9 | 0.00 | 0.00 | 0.00 | 68 | 1014.9 |
| 20260905031616 | 29 | 107 | 11.3 | 20.9 | 0.00 | 0.00 | 0.00 | 68 | 1012.9 |
| 20260905031545 | 29 | 105 | 9.7 | 20.9 | 0.00 | 0.00 | 0.00 | 68 | 1014.9 |
| 20260905030058 | 29 | 147 | 8.0 | 22.5 | 0.00 | 0.00 | 0.00 | 67 | 1012.9 |
| 20260905030045 | 29 | 98 | 8.0 | 22.5 | 0.00 | 0.00 | 0.00 | 68 | 1014.8 |
| 20260905024600 | 29 | 117 | 6.4 | 19.3 | 0.00 | 0.00 | 0.00 | 67 | 1012.6 |
| 20260905024545 | 29 | 122 | 9.7 | 19.3 | 0.00 | 0.00 | 0.00 | 68 | 1014.5 |
| 20260905023144 | 29 | 111 | 9.7 | 19.3 | 0.00 | 0.00 | 0.00 | 67 | 1014.3 |
| 20260905023055 | 29 | 102 | 9.7 | 19.3 | 0.00 | 0.00 | 0.00 | 66 | 1012.3 |
| 20260905021558 | 29 | 105 | 6.4 | 17.7 | 0.00 | 0.00 | 0.00 | 66 | 1012.2 |
| 20260905021550 | 29 | 112 | 4.8 | 17.7 | 0.00 | 0.00 | 0.00 | 67 | 1014.1 |
| 20260905020058 | 29 | 93 | 6.4 | 17.7 | 0.00 | 0.00 | 0.00 | 67 | 1012.0 |
| 20260905020043 | 29 | 86 | 4.8 | 17.7 | 0.00 | 0.00 | 0.00 | 68 | 1013.8 |
| 20260905014557 | 28 | 54 | 4.8 | 11.3 | 0.00 | 0.00 | 0.00 | 69 | 1011.9 |
| 20260905014542 | 28 | 73 | 4.8 | 11.3 | 0.00 | 0.00 | 0.00 | 69 | 1013.7 |
| 20260905013101 | 29 | 91 | 3.2 | 8.0 | 0.00 | 0.00 | 0.00 | 69 | 1011.8 |
| 20260905013041 | 29 | 90 | 3.2 | 8.0 | 0.00 | 0.00 | 0.00 | 69 | 1013.6 |
| 20260905011601 | 29 | 80 | 3.2 | 6.4 | 0.00 | 0.00 | 0.00 | 68 | 1011.7 |
| 20260905011544 | 29 | 81 | 3.2 | 6.4 | 0.00 | 0.00 | 0.00 | 69 | 1013.3 |
| 20260905010105 | 30 | 71 | 1.6 | 4.8 | 0.00 | 0.00 | 0.00 | 67 | 1011.8 |
| 20260905010040 | 30 | 71 | 1.6 | 4.8 | 0.00 | 0.00 | 0.00 | 68 | 1013.5 |
| 20260905004606 | 30 | 45 | 1.6 | 8.0 | 0.00 | 0.00 | 0.00 | 67 | 1011.7 |
| 20260905004546 | 30 | 45 | 1.6 | 8.0 | 0.00 | 0.00 | 0.00 | 67 | 1013.4 |
| 20260905003104 | 30 | 71 | 3.2 | 6.4 | 0.00 | 0.00 | 0.00 | 66 | 1011.6 |
| 20260905003039 | 30 | 71 | 1.6 | 6.4 | 0.00 | 0.00 | 0.00 | 67 | 1013.3 |
| 20260905001605 | 30 | 0 | 1.6 | 6.4 | 0.00 | 0.00 | 0.00 | 65 | 1011.6 |
| 20260905001549 | 30 | 85 | 1.6 | 4.8 | 0.00 | 0.00 | 0.00 | 66 | 1013.2 |
| 20260905000111 | 31 | 94 | 6.4 | 14.5 | 0.00 | 0.00 | 0.00 | 65 | 1011.3 |
| 20260905000039 | 31 | 94 | 4.8 | 14.5 | 0.00 | 0.00 | 0.00 | 65 | 1013.0 |
| 20260904234556 | 31 | 102 | 6.4 | 14.5 | 0.00 | 0.00 | 0.00 | 65 | 1011.3 |
| 20260904234541 | 31 | 80 | 6.4 | 14.5 | 0.00 | 0.00 | 0.00 | 65 | 1013.0 |
| 20260904233114 | 31 | 82 | 8.0 | 16.1 | 0.00 | 0.00 | 0.00 | 65 | 1011.2 |
| 20260904233043 | 31 | 71 | 8.0 | 16.1 | 0.00 | 0.00 | 0.00 | 65 | 1012.8 |
| 20260904231606 | 31 | 84 | 9.7 | 20.9 | 0.00 | 0.00 | 0.00 | 64 | 1011.0 |
| 20260904231545 | 31 | 92 | 8.0 | 20.9 | 0.00 | 0.00 | 0.00 | 65 | 1012.8 |
| 20260904230105 | 31 | 76 | 8.0 | 16.1 | 0.00 | 0.00 | 0.00 | 65 | 1011.3 |
| 20260904230035 | 31 | 79 | 6.4 | 16.1 | 0.00 | 0.00 | 0.00 | 65 | 1013.0 |
| 20260904224557 | 31 | 26 | 8.0 | 16.1 | 0.00 | 0.00 | 0.00 | 64 | 1011.4 |
| 20260904224545 | 31 | 23 | 6.4 | 16.1 | 0.00 | 0.00 | 0.00 | 65 | 1013.0 |
| 20260904223119 | 31 | 27 | 4.8 | 16.1 | 0.00 | 0.00 | 0.00 | 62 | 1011.6 |
| 20260904223033 | 31 | 37 | 6.4 | 16.1 | 0.00 | 0.00 | 0.00 | 62 | 1013.3 |
| 20260904221558 | 31 | 89 | 8.0 | 16.1 | 0.00 | 0.00 | 0.00 | 64 | 1011.8 |
| 20260904221530 | 31 | 89 | 6.4 | 16.1 | 0.00 | 0.00 | 0.00 | 65 | 1013.4 |
| 20260904220058 | 30 | 94 | 6.4 | 14.5 | 0.00 | 0.00 | 0.00 | 70 | 1012.0 |
| 20260904220030 | 30 | 76 | 4.8 | 14.5 | 0.00 | 0.00 | 0.00 | 70 | 1013.5 |
| 20260904214602 | 30 | 55 | 3.2 | 14.5 | 0.00 | 0.00 | 0.00 | 75 | 1012.1 |
| 20260904214528 | 30 | 51 | 3.2 | 14.5 | 0.00 | 0.00 | 0.00 | 75 | 1013.7 |
| 20260904213055 | 30 | 107 | 4.8 | 11.3 | 0.00 | 0.00 | 0.00 | 78 | 1012.2 |
| 20260904213028 | 30 | 104 | 4.8 | 9.7 | 0.00 | 0.00 | 0.00 | 79 | 1013.9 |
| 20260904211552 | 30 | 99 | 4.8 | 14.5 | 0.00 | 0.00 | 0.00 | 78 | 1012.4 |
| 20260904211525 | 30 | 80 | 3.2 | 14.5 | 0.00 | 0.00 | 0.00 | 79 | 1014.1 |
| 20260904210125 | 30 | 99 | 3.2 | 11.3 | 0.00 | 0.00 | 0.00 | 76 | 1012.4 |
| 20260904210024 | 30 | 103 | 4.8 | 9.7 | 0.00 | 0.00 | 0.00 | 76 | 1014.1 |
| 20260904204601 | 30 | 97 | 3.2 | 11.3 | 0.00 | 0.00 | 0.00 | 76 | 1012.5 |
| 20260904204525 | 30 | 93 | 4.8 | 9.7 | 0.00 | 0.00 | 0.00 | 76 | 1014.4 |
| 20260904203104 | 31 | 96 | 1.6 | 8.0 | 0.00 | 0.00 | 0.00 | 74 | 1012.8 |
| 20260904203023 | 31 | 96 | 1.6 | 8.0 | 0.00 | 0.00 | 0.00 | 75 | 1014.5 |
| 20260904201551 | 31 | 136 | 4.8 | 14.5 | 0.00 | 0.00 | 0.00 | 69 | 1012.8 |
| 20260904201522 | 31 | 111 | 3.2 | 14.5 | 0.00 | 0.00 | 0.00 | 69 | 1014.5 |
| 20260904200055 | 31 | 61 | 6.4 | 17.7 | 0.00 | 0.00 | 0.00 | 67 | 1012.8 |
| 20260904200023 | 31 | 96 | 6.4 | 17.7 | 0.00 | 0.00 | 0.00 | 68 | 1014.5 |
| 20260904194556 | 31 | 98 | 6.4 | 16.1 | 0.00 | 0.00 | 0.00 | 67 | 1012.9 |
| 20260904194521 | 31 | 106 | 4.8 | 16.1 | 0.00 | 0.00 | 0.00 | 68 | 1014.6 |
| 20260904193113 | 31 | 102 | 3.2 | 14.5 | 0.00 | 0.00 | 0.00 | 65 | 1013.0 |
| 20260904193020 | 31 | 90 | 3.2 | 14.5 | 0.00 | 0.00 | 0.00 | 66 | 1014.7 |
| 20260904191557 | 31 | 136 | 4.8 | 12.9 | 0.00 | 0.00 | 0.00 | 65 | 1013.1 |
| 20260904191524 | 31 | 128 | 4.8 | 12.9 | 0.00 | 0.00 | 0.00 | 66 | 1014.7 |
| 20260904190049 | 31 | 108 | 3.2 | 11.3 | 0.00 | 0.00 | 0.00 | 66 | 1013.2 |
| 20260904190031 | 31 | 100 | 3.2 | 9.7 | 0.00 | 0.00 | 0.00 | 67 | 1014.8 |
| 20260904184556 | 31 | 88 | 4.8 | 14.5 | 0.00 | 0.00 | 0.00 | 66 | 1013.2 |
| 20260904184519 | 31 | 130 | 3.2 | 12.9 | 0.00 | 0.00 | 0.00 | 66 | 1014.9 |
| 20260904183053 | 32 | 130 | 4.8 | 12.9 | 0.00 | 0.00 | 0.00 | 66 | 1013.5 |
| 20260904183023 | 32 | 117 | 4.8 | 12.9 | 0.00 | 0.00 | 0.00 | 67 | 1015.1 |
| 20260904181551 | 31 | 161 | 4.8 | 14.5 | 0.00 | 0.00 | 0.00 | 67 | 1013.5 |
| 20260904181527 | 31 | 128 | 6.4 | 12.9 | 0.00 | 0.00 | 0.00 | 68 | 1015.2 |
| 20260904180014 | 31 | 171 | 3.2 | 11.3 | 0.00 | 0.00 | 0.00 | 69 | 1015.2 |
| 20260904174613 | 31 | 159 | 1.6 | 12.9 | 0.00 | 0.00 | 0.00 | 69 | 1015.5 |
| 20260904174553 | 31 | 121 | 3.2 | 14.5 | 0.00 | 0.00 | 0.00 | 69 | 1013.9 |
| 20260904173056 | 31 | 142 | 6.4 | 14.5 | 0.00 | 0.00 | 0.00 | 70 | 1014.2 |
| 20260904173019 | 31 | 120 | 6.4 | 14.5 | 0.00 | 0.00 | 0.00 | 70 | 1015.6 |
| 20260904171558 | 30 | 188 | 6.4 | 12.9 | 0.00 | 0.00 | 0.00 | 71 | 1014.4 |